[ hide orbit diagram ]
For accurate long-term ephemerides, please instead use our Horizons system.This orbit viewer was implemented using two-body methods, and hence should not be used for determining accurate long-term trajectories (over several years or decades) or planetary encounter circumstances.
Orbital Elements at Epoch 2459000.5 (2020-May-31.0) TDB
Reference: JPL 28 (heliocentric ecliptic J2000)
Element | Value | Uncertainty (1-sigma) | Units |
e | .1442423640317716 | 9.5773e-08 | |
a | 2.521275361050737 | 8.6829e-09 | au |
q | 2.15760064259772 | 2.4253e-07 | au |
i | 1.74916255018842 | 5.2829e-06 | deg |
node | 239.2594432367853 | 0.00022386 | deg |
peri | 190.5686312618984 | 0.00023599 | deg |
M | 106.463938344888 | 7.41e-05 | deg |
tp | 2458568.056998156483 (2019-Mar-25.55699816) | 0.00030051 | TDB |
period | 1462.274297606249 4.00 | 7.5538e-06 2.068e-08 | d yr |
n | .2461918400599134 | 1.2718e-09 | deg/d |
Q | 2.884950079503754 | 9.9353e-09 | au |
|
| | Orbit Determination Parameters
Additional Information
|
[ show covariance matrix ]
Physical Parameter Table
Parameter |
Symbol |
Value |
Units |
Sigma |
Reference |
Notes |
absolute magnitude |
H |
15.3 |
|
n/a |
MPO459207 |
|
|
52234 (1978 UX7) Discovered 1978-Oct-27 by Olmstead, C. M. at Palomar |
Reference: 20030216/Numbers.arc | Last Updated: 2004-04-19 |
|
[ show close-approach data ]
|